This demonstration page uses our WeatherBlox Daily Observations layout. Learn more.

39.92423, -83.80882

Hourly Observations for December 17, 2019

Temp ( °F °C ) Dew Point ( °F °C ) Humidity (%) Winds ( mph kmh ) Pressure ( in mb ) Visibility ( mi km ) Precip ( " mm )
12:12 am 00:12 Cloudy with Light Snow 30 -1 30 -1 100 100 NNE 14 22 29.95 1014 2.5 4.02335 0.001 0.001
12:46 am 00:46 Cloudy with Light Snow 32 0 32 0 100 100 NNE 13 20 29.93 1014 2 3.21868 0.001 0.001
12:53 am 00:53 Cloudy with Light Snow 32 0 32 0 100 100 NNE 14 22 29.93 1014 1.75 2.816345 0.001 0.001
12:56 am 00:56 Cloudy with Light Snow 32 0 32 0 100 100 NNE 15 24 29.91 1013 2 3.21868 0.001 0.001
1:28 am 01:28 Cloudy with Light Freezing Rain 32 0 32 0 100 100 NNE 15 24 29.91 1013 2.5 4.02335 0.01 0.254
1:56 am 01:56 Cloudy with Light Snow 32 0 32 0 100 100 NNE 12 19 29.89 1012 2.5 4.02335 0.01 0.254
2:40 am 02:40 Cloudy with Light Snow 32 0 32 0 100 100 NNE 16 26 29.9 1013 1.75 2.816345 0.001 0.001
2:56 am 02:56 Cloudy with Light Snow 32 0 32 0 100 100 NNE 16 26 29.88 1012 1.75 2.816345 0.001 0.001
3:06 am 03:06 Windy with Snow Likely 32 0 32 0 100 100 NNE 20 31 29.9 1013 2 3.21868 0.001 0.001
3:47 am 03:47 Cloudy with Light Snow 32 0 30 -1 93 93 N 12 19 29.91 1013 2.5 4.02335 0.001 0.001
3:56 am 03:56 Cloudy with Light Snow 32 0 32 0 100 100 N 14 22 29.9 1012 2.5 4.02335 0.001 0.001
4:19 am 04:19 Cloudy with Light Snow 30 -1 30 -1 100 100 N 15 24 29.93 1013 3 4.82802 0.001 0.001
4:56 am 04:56 Cloudy with Light Snow 31 -0.6 31 -0.6 100 100 N 16 26 29.91 1013 3 4.82802 0.001 0.001
5:07 am 05:07 Cloudy with Light Freezing Rain 30 -1 30 -1 100 100 N 18 30 29.93 1013 3 4.82802 0.001 0.001
5:12 am 05:12 Cloudy with Light Snow 30 -1 30 -1 100 100 N 15 24 29.93 1013 3 4.82802 0.001 0.001
5:56 am 05:56 Cloudy with Light Snow 30 -1.1 29 -1.7 96 96 N 16 26 29.91 1013 3 4.82802 0.001 0.001
6:56 am 06:56 Cloudy with Light Snow 29 -1.7 28 -2.2 96 96 N 16 26 29.93 1014 6 9.65604 0.001 0.001
7:56 am 07:56 Cloudy with Light Snow 28 -2.2 27 -2.8 96 96 N 17 28 29.97 1015 2.5 4.02335 0.001 0.001
8:05 am 08:05 Cloudy with Light Snow 28 -2 27 -3 93 93 N 15 24 29.99 1016 3 4.82802 0.001 0.001
8:33 am 08:33 Cloudy with Light Snow 28 -2 27 -3 93 93 N 14 22 30.01 1016 6 9.65604 0.001 0.001
8:56 am 08:56 Cloudy with Light Snow 28 -2.2 27 -2.8 96 96 NNW 15 24 30 1016 7 11.26538 0.001 0.001
9:56 am 09:56 Cloudy with Light Snow 28 -2.2 27 -2.8 96 96 NNW 15 24 30.03 1017 3 4.82802 0.001 0.001
10:11 am 10:11 Cloudy with Light Snow 28 -2 27 -3 93 93 NNW 13 20 30.06 1018 2 3.21868 0.001 0.001
10:18 am 10:18 Cloudy with Light Snow 28 -2 27 -3 93 93 NNW 17 28 30.06 1018 1.75 2.816345 0.001 0.001
10:29 am 10:29 Cloudy with Light Snow 28 -2 27 -3 93 93 NNW 13 20 30.07 1018 2.5 4.02335 0.001 0.001
10:56 am 10:56 Cloudy with Light Snow 28 -2.2 26 -3.3 92 92 NNW 15 24 30.05 1018 6 9.65604 0.001 0.001
11:27 am 11:27 Cloudy 28 -2 27 -3 93 93 NNW 16 26 30.07 1018 9 14.48406 0.001 0.001
11:56 am 11:56 Partly Cloudy 29 -1.7 25 -3.9 85 85 NNW 13 20 30.04 1017 10 16.0934 0.001 0.001
12:56 pm 12:56 Mostly Cloudy 30 -1.1 26 -3.3 85 85 NW 14 22 30.03 1017 10 16.0934 0 0
1:09 pm 13:09 Mostly Cloudy 30 -1 27 -3 86 86 NW 17 28 30.05 1018 10 16.0934 0 0
1:56 pm 13:56 Mostly Cloudy 29 -1.7 24 -4.4 82 82 NW 13 20 30.03 1017 10 16.0934 0 0
2:09 pm 14:09 Partly Cloudy 28 -2 25 -4 86 86 NW 15 24 30.06 1018 10 16.0934 0 0
2:56 pm 14:56 Sunny 29 -1.7 24 -4.4 82 82 NW 16 26 30.05 1018 10 16.0934 0 0
3:56 pm 15:56 Sunny 29 -1.7 23 -5 78 78 WNW 12 19 30.07 1018 10 16.0934 0 0
4:56 pm 16:56 Sunny 28 -2.2 22 -5.6 78 78 NW 8 13 30.09 1019 10 16.0934 0 0
5:56 pm 17:56 Clear 24 -4.4 20 -6.7 84 84 W 8 13 30.11 1020 10 16.0934 0 0
6:56 pm 18:56 Clear 25 -3.9 22 -5.6 88 88 W 9 15 30.12 1020 10 16.0934 0 0
7:56 pm 19:56 Clear 23 -5 21 -6.1 92 92 WSW 8 13 30.12 1020 10 16.0934 0 0
8:56 pm 20:56 Clear 22 -5.6 20 -6.7 92 92 WSW 8 13 30.12 1020 10 16.0934 0 0
9:56 pm 21:56 Clear 22 -5.6 20 -6.7 92 92 SW 8 13 30.11 1020 10 16.0934 0 0
10:56 pm 22:56 Clear 21 -6.1 20 -6.7 96 96 SSW 6 9 30.1 1019 8 12.87472 0 0
11:56 pm 23:56 Clear 21 -6.1 19 -7.2 92 92 WSW 9 15 30.09 1019 10 16.0934 0 0

Powered by AerisWeather